Weather History for KCVG - March, 2013

Change the Weather History Date:

Saturday, March 16, 2013

  Actual Average Record
Temperature  
Mean Temperature 51 °F 44 °F  
Max Temperature 63 °F 53 °F 83 °F (1945)
Min Temperature 38 °F 34 °F 9 °F (1970)
Degree Days  
Heating Degree Days 14 21  
Month to date heating degree days 445 386  
Since 1 July heating degree days 4155 4213  
Cooling Degree Days 0 0  
Month to date cooling degree days 0 0  
Year to date cooling degree days 0 0  
Growing Degree Days 1 (Base 50)    
Moisture  
Dew Point 43 °F    
Average Humidity 77    
Maximum Humidity 96    
Minimum Humidity 57    
Precipitation  
Precipitation 0.16 in 0.13 in 2.22 in (1963)
Month to date precipitation 2.25 1.87  
Year to date precipitation 7.85 7.68  
Snow  
Snow 0.00 in 0.10 in 4.30 in (1956)
Month to date snowfall 5.5 1.9  
Since 1 July snowfall 21.9 20.5  
Snow Depth 0.00 in    
Sea Level Pressure  
Sea Level Pressure 29.78 in    
Wind  
Wind Speed 12 mph (North)    
Max Wind Speed 25 mph    
Max Gust Speed 30 mph    
Visibility 7 miles    
Events Rain    
T = Trace of Precipitation, MM = Missing Value Source: NWS Daily Summary

Daily Weather History Graph

Daily Weather History Graph

Search for Another Location

Airport or City:

Trip Planner

Search our weather history database for the weather conditions in past years. The results will help you decide how hot, cold, wet, or windy it might be!

Date:

Astronomy

Mar. 16, 2013 Rise Set
Actual Time 7:48 AM EDT 7:46 PM EDT
Civil Twilight 7:21 AM EDT 8:13 PM EDT
Nautical Twilight 6:50 AM EDT 8:44 PM EDT
Astronomical Twilight 6:19 AM EDT 9:16 PM EDT
Moon 10:19 AM EDT (3/16) No Moon Set
Length of Visible Light 12h 52m
Length of Day
11h 58m
Waxing Crescent, 23% of the Moon is Illuminated
Mar 16
Waxing Crescent
Mar 19
First Quarter
Mar 27
Full
Apr 3
Last Quarter
Apr 10
New

Hourly Weather History & Observations

Time (EDT) Temp. Windchill Dew Point Humidity Pressure Visibility Wind Dir Wind Speed Gust Speed Precip Events Conditions
12:52 AM 48.9 °F - 39.9 °F 71% 29.75 in 10.0 mi ENE 10.4 mph - 0.00 in Rain Light Rain
1:48 AM 46.4 °F 40.4 °F 42.8 °F 87% 29.73 in 8.0 mi ESE 13.8 mph 24.2 mph 0.14 in Rain Light Rain
1:52 AM 46.0 °F 39.3 °F 43.0 °F 89% 29.71 in 8.0 mi ESE 16.1 mph - 0.14 in Rain Light Rain
2:01 AM 46.4 °F 41.9 °F 42.8 °F 87% 29.72 in 10.0 mi ESE 9.2 mph - 0.00 in Rain Light Rain
2:52 AM 46.0 °F 41.4 °F 43.0 °F 89% 29.71 in 8.0 mi East 9.2 mph - 0.00 in   Scattered Clouds
3:52 AM 45.0 °F 41.8 °F 43.0 °F 93% 29.68 in 9.0 mi SE 5.8 mph - N/A   Mostly Cloudy
4:52 AM 44.1 °F 40.8 °F 43.0 °F 96% 29.65 in 9.0 mi SSE 5.8 mph - N/A   Mostly Cloudy
5:52 AM 42.1 °F 38.4 °F 41.0 °F 96% 29.65 in 8.0 mi SSE 5.8 mph - N/A   Mostly Cloudy
6:52 AM 44.1 °F 39.0 °F 42.1 °F 93% 29.63 in 9.0 mi South 9.2 mph - N/A   Scattered Clouds
7:52 AM 46.9 °F - 45.0 °F 93% 29.67 in 6.0 mi SW 4.6 mph - 0.01 in Rain Light Rain
8:52 AM 48.0 °F - 46.9 °F 96% 29.64 in 7.0 mi SSW 6.9 mph - 0.01 in   Overcast
9:52 AM 54.0 °F - 48.9 °F 83% 29.62 in 10.0 mi SSW 11.5 mph - 0.00 in Rain Light Rain
10:52 AM 61.0 °F - 50.0 °F 67% 29.64 in 10.0 mi WSW 11.5 mph 21.9 mph 0.00 in   Mostly Cloudy
11:52 AM 63.0 °F - 52.0 °F 67% 29.68 in 10.0 mi WNW 23.0 mph 28.8 mph N/A   Mostly Cloudy
12:52 PM 61.0 °F - 48.9 °F 64% 29.72 in 10.0 mi WNW 18.4 mph - N/A   Mostly Cloudy
1:52 PM 59.0 °F - 46.9 °F 64% 29.75 in 8.0 mi WNW 15.0 mph - N/A   Overcast
2:52 PM 59.0 °F - 45.0 °F 60% 29.78 in 8.0 mi NNW 17.3 mph - N/A   Mostly Cloudy
3:52 PM 54.0 °F - 44.1 °F 69% 29.81 in 6.0 mi NNW 15.0 mph - N/A   Haze
4:52 PM 52.0 °F - 42.1 °F 69% 29.85 in 6.0 mi North 19.6 mph - N/A   Haze
5:52 PM 48.9 °F - 41.0 °F 74% 29.88 in 5.0 mi NNW 16.1 mph - N/A   Haze
6:52 PM 48.0 °F - 39.9 °F 74% 29.92 in 5.0 mi North 16.1 mph - N/A   Haze
7:30 PM 44.6 °F 36.9 °F 41.0 °F 87% 29.93 in 4.0 mi North 18.4 mph - N/A   Overcast
7:52 PM 44.1 °F 36.2 °F 41.0 °F 89% 29.93 in 4.0 mi North 18.4 mph - N/A   Overcast
8:09 PM 42.8 °F 36.2 °F 41.0 °F 93% 29.93 in 4.0 mi North 12.7 mph - N/A   Overcast
8:52 PM 41.0 °F 33.5 °F 39.0 °F 93% 29.94 in 5.0 mi North 13.8 mph - N/A   Overcast
9:52 PM 39.9 °F 33.9 °F 36.0 °F 86% 29.99 in 6.0 mi North 9.2 mph - N/A   Overcast
10:52 PM 39.9 °F 34.5 °F 35.1 °F 83% 30.00 in 6.0 mi NNE 8.1 mph - N/A   Haze
11:52 PM 39.0 °F 33.4 °F 34.0 °F 82% 30.01 in 7.0 mi NE 8.1 mph - N/A   Overcast